Terug naar catalogus

KUIPER-00066

ActiefCommunicatieLEO
NORAD 64526·PAYLOAD·🇺🇸 United States

Gelanceerd Jun 23, 2025 vanaf Cape Canaveral Space Force Station

Loading…

Volgende Passages (komende 24 uur)

TLE

VersSource: CelesTrak SupGP

Epoch: Sep 15, 2026, 01:19 UTC

1 64526C 25134AC  26258.05532407  .00002525  00000+0  33048-3 0  2589
2 64526  51.9017  60.6388 0000642 107.2692 137.1762 14.79929194    11

Volg KUIPER-00066 in realtime met AllMySat

Download on the App Store